QPF
0.01 0.01 0.01 0.00 0.01 0.02 0.02 0.03 0.05 0.07 0.07 0.05 0.04 0.05 0.05 0.05 0.06 0.06 0.06 0.07 0.08 0.08 0.09 0.07 0.08 0.07 0.07 0.06 0.07 0.08 0.10 0.11 0.12 0.12 0.11 0.08 0.06 0.05 0.05 0.06 0.07 0.06 0.05
0.00 0.00 0.00 0.01 0.01 0.02 0.02 0.03 0.03 0.05 0.06 0.06 0.05 0.06 0.09 0.10 0.10 0.07 0.07 0.06 0.06 0.06 0.06 0.09 0.07 0.06 0.08 0.09 0.08 0.08 0.09 0.10 0.12 0.11 0.11 0.10 0.09 0.06 0.05 0.06 0.05 0.07 0.08
0.00 0.01 0.01 0.01 0.01 0.01 0.02 0.03 0.04 0.04 0.04 0.06 0.05 0.05 0.08 0.09 0.09 0.09 0.08 0.06 0.04 0.05 0.07 0.08 0.06 0.05 0.06 0.07 0.06 0.07 0.08 0.09 0.10 0.10 0.10 0.10 0.10 0.09 0.08 0.06 0.06 0.06 0.06
0.00 0.01 0.01 0.01 0.02 0.03 0.04 0.05 0.05 0.04 0.04 0.05 0.04 0.04 0.03 0.03 0.03 0.04 0.04 0.03 0.03 0.03 0.04 0.04 0.05 0.04 0.04 0.05 0.04 0.06 0.07 0.08 0.07 0.10 0.10 0.10 0.12 0.11 0.11 0.09 0.07 0.08 0.07
0.01 0.02 0.03 0.02 0.02 0.03 0.02 0.02 0.03 0.04 0.03 0.03 0.04 0.03 0.03 0.02 0.02 0.02 0.02 0.03 0.03 0.03 0.03 0.04 0.04 0.04 0.04 0.04 0.04 0.06 0.06 0.06 0.07 0.08 0.09 0.11 0.13 0.11 0.11 0.10 0.09 0.09 0.07
0.01 0.04 0.06 0.02 0.02 0.01 0.01 0.02 0.03 0.04 0.04 0.03 0.03 0.03 0.03 0.03 0.03 0.03 0.03 0.04 0.05 0.04 0.03 0.04 0.05 0.04 0.04 0.05 0.05 0.06 0.06 0.07 0.08 0.07 0.06 0.08 0.09 0.09 0.09 0.10 0.10 0.10 0.07
0.00 0.01 0.02 0.02 0.02 0.01 0.01 0.02 0.04 0.04 0.04 0.04 0.04 0.04 0.04 0.04 0.04 0.04 0.04 0.05 0.04 0.05 0.05 0.05 0.05 0.04 0.04 0.05 0.05 0.06 0.06 0.05 0.06 0.06 0.06 0.05 0.05 0.05 0.07 0.10 0.11 0.11 0.09
0.01 0.01 0.01 0.01 0.01 0.01 0.01 0.02 0.04 0.04 0.04 0.04 0.04 0.04 0.05 0.05 0.06 0.05 0.04 0.05 0.06 0.05 0.05 0.04 0.04 0.05 0.05 0.05 0.06 0.05 0.06 0.06 0.05 0.05 0.06 0.06 0.05 0.05 0.06 0.07 0.10 0.11 0.09
0.06 0.04 0.03 0.02 0.02 0.03 0.03 0.03 0.03 0.03 0.05 0.05 0.05 0.05 0.06 0.07 0.08 0.08 0.07 0.07 0.08 0.07 0.06 0.05 0.05 0.05 0.06 0.06 0.07 0.08 0.07 0.08 0.07 0.06 0.06 0.06 0.05 0.05 0.05 0.07 0.10 0.11 0.10
0.06 0.04 0.03 0.03 0.03 0.03 0.03 0.04 0.05 0.04 0.05 0.06 0.06 0.06 0.08 0.09 0.11 0.12 0.11 0.09 0.09 0.07 0.06 0.06 0.07 0.09 0.08 0.08 0.08 0.08 0.08 0.07 0.07 0.07 0.06 0.06 0.05 0.05 0.06 0.06 0.08 0.09 0.09
0.05 0.02 0.02 0.02 0.02 0.02 0.02 0.03 0.05 0.05 0.06 0.07 0.08 0.09 0.10 0.11 0.11 0.10 0.08 0.08 0.08 0.08 0.07 0.06 0.06 0.07 0.07 0.07 0.08 0.08 0.08 0.07 0.07 0.07 0.06 0.06 0.06 0.06 0.06 0.06 0.07 0.08 0.08
0.03 0.02 0.01 0.01 0.01 0.02 0.03 0.03 0.04 0.05 0.06 0.06 0.06 0.06 0.07 0.07 0.06 0.06 0.07 0.08 0.09 0.10 0.08 0.06 0.06 0.07 0.06 0.06 0.07 0.07 0.08 0.09 0.09 0.08 0.09 0.08 0.08 0.08 0.06 0.06 0.06 0.07 0.08
0.01 0.01 0.01 0.01 0.01 0.01 0.02 0.03 0.04 0.05 0.05 0.05 0.05 0.05 0.06 0.06 0.06 0.06 0.07 0.08 0.08 0.08 0.09 0.08 0.07 0.07 0.08 0.08 0.08 0.06 0.06 0.07 0.08 0.08 0.08 0.07 0.09 0.08 0.06 0.06 0.06 0.06 0.07
0.02 0.01 0.01 0.01 0.00 0.00 0.01 0.02 0.03 0.05 0.04 0.04 0.04 0.05 0.06 0.06 0.07 0.07 0.06 0.05 0.06 0.06 0.06 0.06 0.06 0.07 0.07 0.07 0.09 0.09 0.08 0.08 0.07 0.07 0.06 0.06 0.06 0.06 0.06 0.05 0.06 0.07 0.07
0.02 0.02 0.01 0.01 0.01 0.01 0.01 0.01 0.02 0.03 0.03 0.03 0.03 0.03 0.04 0.05 0.05 0.06 0.05 0.04 0.05 0.05 0.05 0.05 0.05 0.06 0.06 0.07 0.07 0.07 0.07 0.07 0.07 0.06 0.05 0.05 0.06 0.06 0.05 0.04 0.05 0.09 0.09
0.02 0.02 0.02 0.01 0.01 0.01 0.01 0.01 0.01 0.02 0.03 0.04 0.03 0.03 0.04 0.05 0.05 0.04 0.05 0.05 0.05 0.05 0.04 0.04 0.04 0.05 0.04 0.04 0.04 0.05 0.05 0.05 0.06 0.06 0.06 0.05 0.05 0.04 0.03 0.03 0.03 0.05 0.07
0.02 0.03 0.03 0.02 0.01 0.01 0.02 0.02 0.01 0.02 0.03 0.03 0.03 0.03 0.03 0.04 0.05 0.04 0.04 0.04 0.04 0.04 0.03 0.03 0.03 0.02 0.02 0.02 0.02 0.03 0.04 0.05 0.06 0.07 0.07 0.05 0.05 0.05 0.04 0.03 0.03 0.03 0.03
0.02 0.03 0.04 0.03 0.02 0.01 0.03 0.04 0.02 0.02 0.03 0.03 0.03 0.02 0.02 0.02 0.03 0.05 0.05 0.04 0.04 0.03 0.03 0.03 0.02 0.02 0.02 0.01 0.01 0.01 0.02 0.04 0.05 0.05 0.05 0.05 0.06 0.04 0.04 0.04 0.04 0.03 0.03
0.02 0.03 0.03 0.04 0.03 0.02 0.02 0.04 0.04 0.03 0.03 0.03 0.02 0.02 0.02 0.03 0.03 0.04 0.04 0.03 0.03 0.03 0.03 0.02 0.03 0.03 0.03 0.02 0.01 0.01 0.02 0.03 0.04 0.05 0.04 0.04 0.04 0.03 0.02 0.02 0.03 0.03 0.04
0.02 0.03 0.04 0.05 0.04 0.02 0.02 0.04 0.04 0.04 0.03 0.03 0.02 0.02 0.03 0.04 0.03 0.02 0.03 0.02 0.03 0.03 0.03 0.03 0.03 0.04 0.04 0.03 0.02 0.02 0.02 0.03 0.04 0.05 0.04 0.03 0.02 0.01 0.01 0.01 0.03 0.03 0.03
0.01 0.02 0.04 0.05 0.04 0.03 0.02 0.03 0.04 0.04 0.03 0.04 0.03 0.03 0.03 0.03 0.03 0.03 0.03 0.03 0.03 0.04 0.05 0.06 0.06 0.07 0.06 0.04 0.03 0.02 0.02 0.03 0.04 0.04 0.04 0.03 0.02 0.01 0.01 0.01 0.02 0.02 0.02
0.01 0.01 0.03 0.04 0.03 0.04 0.03 0.03 0.04 0.04 0.04 0.04 0.04 0.03 0.03 0.03 0.02 0.03 0.03 0.03 0.04 0.05 0.06 0.07 0.07 0.07 0.06 0.06 0.05 0.03 0.02 0.02 0.03 0.04 0.04 0.03 0.02 0.01 0.01 0.01 0.01 0.02 0.02
0.01 0.02 0.04 0.04 0.03 0.04 0.04 0.04 0.03 0.04 0.04 0.05 0.03 0.03 0.03 0.02 0.02 0.03 0.04 0.05 0.05 0.05 0.05 0.05 0.05 0.05 0.05 0.06 0.05 0.04 0.03 0.02 0.02 0.02 0.02 0.02 0.01 0.01 0.01 0.02 0.02 0.02 0.02
0.01 0.02 0.04 0.03 0.02 0.02 0.03 0.03 0.02 0.03 0.05 0.05 0.04 0.03 0.02 0.02 0.03 0.04 0.05 0.05 0.06 0.05 0.04 0.04 0.04 0.04 0.04 0.04 0.04 0.04 0.03 0.03 0.02 0.02 0.02 0.02 0.02 0.02 0.02 0.02 0.02 0.02 0.03
0.02 0.03 0.04 0.04 0.03 0.02 0.03 0.03 0.03 0.05 0.07 0.08 0.08 0.07 0.05 0.05 0.05 0.06 0.06 0.06 0.05 0.05 0.04 0.04 0.04 0.04 0.03 0.03 0.03 0.02 0.02 0.02 0.02 0.02 0.02 0.03 0.03 0.03 0.02 0.02 0.02 0.03 0.03
0.03 0.03 0.04 0.04 0.03 0.03 0.03 0.04 0.04 0.06 0.08 0.11 0.12 0.11 0.10 0.08 0.08 0.08 0.07 0.07 0.07 0.06 0.05 0.04 0.03 0.04 0.05 0.04 0.03 0.02 0.01 0.02 0.02 0.02 0.02 0.03 0.03 0.03 0.03 0.03 0.02 0.02 0.03
MSLP
1005.18 1005.98 1006.84 1007.70 1008.54 1009.33 1010.05 1010.71 1011.29 1011.80 1012.24 1012.62 1012.94 1013.20 1013.42 1013.61 1013.80 1013.99 1014.20 1014.41 1014.64 1014.87 1015.09 1015.30 1015.50 1015.68 1015.84 1016.00 1016.14 1016.27 1016.38 1016.46 1016.49 1016.47 1016.40 1016.27 1016.11 1015.92 1015.74 1015.59 1015.48 1015.44 1015.46
1004.74 1005.52 1006.37 1007.25 1008.11 1008.93 1009.70 1010.42 1011.08 1011.67 1012.19 1012.63 1012.99 1013.27 1013.48 1013.65 1013.78 1013.92 1014.07 1014.25 1014.46 1014.70 1014.96 1015.22 1015.48 1015.71 1015.93 1016.12 1016.29 1016.43 1016.54 1016.62 1016.67 1016.67 1016.62 1016.53 1016.39 1016.23 1016.05 1015.88 1015.73 1015.63 1015.58
1004.12 1004.86 1005.70 1006.57 1007.44 1008.30 1009.13 1009.92 1010.66 1011.35 1011.96 1012.48 1012.91 1013.23 1013.46 1013.63 1013.74 1013.85 1013.97 1014.13 1014.33 1014.58 1014.86 1015.16 1015.45 1015.73 1015.97 1016.17 1016.34 1016.47 1016.58 1016.66 1016.72 1016.74 1016.74 1016.70 1016.62 1016.50 1016.36 1016.20 1016.04 1015.89 1015.78
1003.27 1003.97 1004.79 1005.67 1006.57 1007.47 1008.36 1009.23 1010.06 1010.85 1011.56 1012.18 1012.69 1013.09 1013.37 1013.57 1013.69 1013.80 1013.92 1014.07 1014.27 1014.52 1014.81 1015.12 1015.42 1015.70 1015.94 1016.13 1016.27 1016.38 1016.47 1016.54 1016.60 1016.66 1016.70 1016.72 1016.71 1016.66 1016.58 1016.45 1016.30 1016.14 1015.98
1002.22 1002.89 1003.70 1004.59 1005.53 1006.49 1007.45 1008.41 1009.34 1010.23 1011.05 1011.77 1012.38 1012.86 1013.22 1013.47 1013.65 1013.78 1013.91 1014.07 1014.27 1014.52 1014.80 1015.10 1015.38 1015.63 1015.84 1015.99 1016.09 1016.16 1016.21 1016.26 1016.32 1016.40 1016.48 1016.56 1016.63 1016.66 1016.64 1016.57 1016.45 1016.29 1016.11
1001.05 1001.70 1002.52 1003.44 1004.43 1005.46 1006.50 1007.54 1008.57 1009.56 1010.48 1011.30 1012.01 1012.58 1013.02 1013.35 1013.58 1013.76 1013.93 1014.11 1014.31 1014.55 1014.81 1015.08 1015.33 1015.53 1015.68 1015.78 1015.83 1015.85 1015.86 1015.88 1015.93 1016.02 1016.13 1016.26 1016.38 1016.48 1016.52 1016.51 1016.43 1016.30 1016.12
999.88 1000.51 1001.34 1002.31 1003.37 1004.47 1005.59 1006.72 1007.83 1008.90 1009.90 1010.81 1011.60 1012.26 1012.78 1013.19 1013.49 1013.73 1013.94 1014.14 1014.36 1014.59 1014.82 1015.05 1015.25 1015.40 1015.49 1015.53 1015.53 1015.50 1015.47 1015.47 1015.50 1015.58 1015.70 1015.85 1016.01 1016.15 1016.25 1016.29 1016.25 1016.15 1015.99
998.80 999.43 1000.29 1001.30 1002.42 1003.60 1004.80 1006.00 1007.18 1008.31 1009.37 1010.34 1011.19 1011.91 1012.51 1012.98 1013.35 1013.65 1013.91 1014.14 1014.37 1014.59 1014.81 1015.00 1015.15 1015.25 1015.30 1015.30 1015.25 1015.19 1015.13 1015.09 1015.10 1015.16 1015.27 1015.42 1015.58 1015.74 1015.86 1015.94 1015.94 1015.88 1015.76
997.91 998.54 999.42 1000.48 1001.65 1002.90 1004.16 1005.42 1006.65 1007.82 1008.91 1009.91 1010.79 1011.56 1012.20 1012.73 1013.16 1013.52 1013.82 1014.09 1014.33 1014.56 1014.76 1014.92 1015.04 1015.11 1015.13 1015.10 1015.03 1014.95 1014.87 1014.81 1014.79 1014.82 1014.90 1015.02 1015.15 1015.30 1015.43 1015.52 1015.56 1015.54 1015.46
997.26 997.88 998.77 999.86 1001.08 1002.37 1003.68 1004.99 1006.24 1007.43 1008.54 1009.54 1010.44 1011.22 1011.89 1012.46 1012.94 1013.34 1013.69 1013.99 1014.25 1014.48 1014.68 1014.83 1014.94 1014.99 1015.00 1014.96 1014.89 1014.80 1014.72 1014.65 1014.60 1014.59 1014.62 1014.69 1014.78 1014.89 1014.99 1015.09 1015.15 1015.17 1015.14
996.86 997.46 998.34 999.44 1000.69 1002.01 1003.36 1004.68 1005.96 1007.16 1008.26 1009.26 1010.15 1010.94 1011.62 1012.21 1012.72 1013.15 1013.54 1013.87 1014.15 1014.40 1014.59 1014.74 1014.84 1014.90 1014.91 1014.87 1014.81 1014.74 1014.65 1014.57 1014.50 1014.45 1014.43 1014.43 1014.47 1014.52 1014.60 1014.68 1014.75 1014.80 1014.83
996.68 997.25 998.11 999.20 1000.44 1001.78 1003.14 1004.49 1005.77 1006.98 1008.08 1009.07 1009.95 1010.73 1011.41 1012.01 1012.54 1013.00 1013.41 1013.76 1014.06 1014.32 1014.52 1014.67 1014.77 1014.82 1014.83 1014.81 1014.77 1014.70 1014.61 1014.52 1014.43 1014.34 1014.27 1014.22 1014.19 1014.19 1014.23 1014.29 1014.38 1014.46 1014.53
996.69 997.22 998.03 999.09 1000.31 1001.64 1003.02 1004.37 1005.67 1006.88 1007.98 1008.97 1009.84 1010.62 1011.30 1011.90 1012.44 1012.91 1013.33 1013.70 1014.01 1014.27 1014.46 1014.61 1014.70 1014.75 1014.76 1014.74 1014.70 1014.63 1014.55 1014.45 1014.34 1014.22 1014.10 1014.00 1013.92 1013.88 1013.88 1013.93 1014.02 1014.13 1014.25
996.84 997.31 998.07 999.08 1000.27 1001.59 1002.96 1004.33 1005.64 1006.86 1007.96 1008.95 1009.82 1010.59 1011.27 1011.87 1012.41 1012.89 1013.31 1013.68 1013.99 1014.24 1014.42 1014.55 1014.62 1014.65 1014.65 1014.62 1014.57 1014.50 1014.41 1014.30 1014.17 1014.03 1013.88 1013.74 1013.63 1013.56 1013.54 1013.58 1013.67 1013.80 1013.95
997.06 997.48 998.19 999.14 1000.30 1001.59 1002.96 1004.33 1005.65 1006.89 1008.00 1009.00 1009.87 1010.64 1011.31 1011.90 1012.44 1012.91 1013.33 1013.69 1013.98 1014.21 1014.37 1014.47 1014.51 1014.52 1014.49 1014.43 1014.37 1014.28 1014.18 1014.06 1013.92 1013.77 1013.61 1013.45 1013.32 1013.23 1013.20 1013.23 1013.32 1013.46 1013.63
997.32 997.70 998.35 999.26 1000.38 1001.65 1003.00 1004.37 1005.70 1006.95 1008.07 1009.07 1009.94 1010.70 1011.37 1011.95 1012.47 1012.93 1013.33 1013.67 1013.94 1014.15 1014.28 1014.35 1014.37 1014.34 1014.28 1014.20 1014.11 1014.01 1013.89 1013.77 1013.62 1013.47 1013.30 1013.15 1013.01 1012.91 1012.87 1012.89 1012.97 1013.11 1013.28
997.55 997.91 998.53 999.41 1000.49 1001.73 1003.07 1004.44 1005.77 1007.01 1008.14 1009.13 1010.00 1010.75 1011.40 1011.96 1012.46 1012.90 1013.28 1013.60 1013.85 1014.04 1014.15 1014.20 1014.18 1014.13 1014.05 1013.95 1013.84 1013.72 1013.60 1013.47 1013.33 1013.18 1013.02 1012.87 1012.74 1012.64 1012.59 1012.60 1012.66 1012.77 1012.92
997.70 998.08 998.70 999.56 1000.63 1001.85 1003.17 1004.51 1005.83 1007.06 1008.18 1009.16 1010.01 1010.74 1011.37 1011.91 1012.38 1012.80 1013.16 1013.46 1013.70 1013.87 1013.98 1014.02 1014.00 1013.94 1013.85 1013.74 1013.62 1013.50 1013.38 1013.25 1013.12 1012.98 1012.83 1012.69 1012.56 1012.45 1012.39 1012.37 1012.39 1012.46 1012.56
997.75 998.19 998.85 999.72 1000.78 1001.98 1003.28 1004.60 1005.88 1007.09 1008.18 1009.14 1009.96 1010.67 1011.27 1011.79 1012.24 1012.64 1012.99 1013.28 1013.52 1013.70 1013.81 1013.86 1013.86 1013.81 1013.73 1013.63 1013.53 1013.41 1013.30 1013.17 1013.05 1012.91 1012.76 1012.62 1012.48 1012.36 1012.27 1012.21 1012.18 1012.19 1012.22
997.72 998.25 998.97 999.88 1000.95 1002.14 1003.40 1004.69 1005.94 1007.10 1008.16 1009.09 1009.89 1010.57 1011.15 1011.65 1012.09 1012.47 1012.81 1013.11 1013.36 1013.55 1013.69 1013.78 1013.81 1013.80 1013.75 1013.68 1013.59 1013.49 1013.38 1013.26 1013.13 1012.99 1012.83 1012.67 1012.51 1012.35 1012.22 1012.10 1012.01 1011.94 1011.90
997.65 998.31 999.12 1000.07 1001.16 1002.34 1003.57 1004.82 1006.02 1007.14 1008.15 1009.05 1009.82 1010.48 1011.05 1011.54 1011.97 1012.35 1012.70 1013.01 1013.28 1013.50 1013.68 1013.81 1013.89 1013.93 1013.92 1013.88 1013.82 1013.74 1013.63 1013.50 1013.36 1013.19 1013.00 1012.81 1012.60 1012.40 1012.20 1012.02 1011.86 1011.71 1011.59
997.63 998.42 999.33 1000.34 1001.44 1002.61 1003.81 1005.00 1006.15 1007.23 1008.20 1009.06 1009.81 1010.46 1011.02 1011.50 1011.94 1012.33 1012.69 1013.02 1013.32 1013.58 1013.80 1013.98 1014.11 1014.19 1014.23 1014.23 1014.18 1014.10 1013.99 1013.84 1013.66 1013.46 1013.23 1012.98 1012.72 1012.45 1012.19 1011.94 1011.70 1011.47 1011.27
997.76 998.68 999.68 1000.73 1001.84 1002.99 1004.14 1005.28 1006.37 1007.39 1008.32 1009.15 1009.88 1010.52 1011.08 1011.58 1012.02 1012.43 1012.81 1013.16 1013.49 1013.78 1014.04 1014.26 1014.43 1014.55 1014.62 1014.64 1014.61 1014.52 1014.39 1014.21 1013.99 1013.73 1013.45 1013.14 1012.82 1012.49 1012.16 1011.84 1011.53 1011.24 1010.97
998.13 999.15 1000.21 1001.29 1002.38 1003.48 1004.58 1005.65 1006.67 1007.63 1008.52 1009.32 1010.04 1010.67 1011.24 1011.74 1012.20 1012.63 1013.02 1013.39 1013.74 1014.06 1014.35 1014.59 1014.79 1014.94 1015.03 1015.05 1015.02 1014.92 1014.76 1014.54 1014.28 1013.97 1013.63 1013.27 1012.90 1012.52 1012.13 1011.76 1011.39 1011.03 1010.70
998.78 999.86 1000.94 1002.00 1003.06 1004.10 1005.11 1006.10 1007.04 1007.94 1008.77 1009.54 1010.24 1010.86 1011.43 1011.95 1012.42 1012.86 1013.26 1013.64 1014.00 1014.33 1014.63 1014.89 1015.11 1015.26 1015.36 1015.38 1015.34 1015.22 1015.04 1014.79 1014.50 1014.16 1013.78 1013.39 1012.99 1012.57 1012.16 1011.75 1011.34 1010.93 1010.53
999.70 1000.79 1001.84 1002.85 1003.83 1004.78 1005.70 1006.59 1007.44 1008.26 1009.03 1009.75 1010.42 1011.03 1011.60 1012.12 1012.59 1013.03 1013.44 1013.83 1014.19 1014.53 1014.83 1015.09 1015.31 1015.46 1015.56 1015.58 1015.53 1015.40 1015.21 1014.95 1014.65 1014.30 1013.93 1013.54 1013.14 1012.73 1012.31 1011.89 1011.46 1011.02 1010.56
Thickness
5819 5817 5813 5809 5803 5796 5791 5787 5782 5777 5773 5768 5764 5761 5759 5759 5758 5757 5755 5752 5749 5747 5744 5741 5738 5736 5733 5731 5730 5728 5725 5724 5725 5721 5720 5723 5727 5727 5727 5727 5726 5726 5725
5813 5810 5807 5803 5797 5791 5787 5783 5779 5774 5770 5766 5764 5761 5759 5757 5756 5755 5752 5749 5746 5744 5742 5739 5736 5734 5731 5729 5727 5725 5721 5721 5722 5717 5712 5710 5714 5719 5725 5723 5722 5722 5722
5809 5805 5801 5796 5792 5786 5784 5781 5776 5772 5768 5765 5761 5758 5755 5753 5751 5749 5747 5747 5744 5741 5739 5737 5734 5732 5729 5726 5724 5723 5719 5716 5717 5717 5711 5704 5703 5709 5716 5718 5719 5718 5717
5810 5803 5796 5791 5786 5783 5782 5779 5774 5770 5766 5762 5757 5753 5749 5746 5747 5746 5745 5744 5742 5739 5737 5735 5732 5730 5727 5724 5722 5722 5719 5715 5712 5712 5712 5710 5708 5702 5702 5708 5713 5714 5713
5808 5801 5794 5789 5785 5782 5778 5775 5771 5767 5764 5760 5755 5751 5748 5746 5745 5743 5741 5739 5738 5737 5735 5733 5731 5728 5725 5723 5721 5719 5716 5714 5710 5708 5707 5706 5705 5704 5698 5696 5701 5705 5708
5805 5799 5794 5788 5783 5780 5775 5771 5766 5762 5760 5756 5753 5749 5746 5743 5740 5738 5736 5735 5734 5733 5732 5730 5727 5725 5722 5720 5717 5715 5713 5711 5708 5706 5705 5702 5700 5698 5697 5694 5694 5695 5701
5799 5793 5787 5783 5779 5774 5770 5765 5760 5756 5754 5752 5749 5747 5744 5741 5737 5735 5733 5731 5729 5728 5727 5727 5724 5721 5718 5716 5714 5711 5709 5708 5705 5703 5701 5700 5700 5699 5696 5692 5690 5690 5694
5793 5788 5785 5779 5774 5769 5764 5759 5754 5751 5749 5746 5745 5744 5741 5738 5735 5733 5730 5728 5726 5725 5725 5722 5719 5717 5715 5712 5710 5707 5706 5704 5702 5700 5698 5697 5697 5697 5694 5690 5686 5682 5684
5785 5782 5778 5773 5769 5764 5759 5755 5750 5746 5744 5742 5740 5738 5736 5733 5731 5729 5727 5725 5724 5723 5720 5717 5714 5712 5710 5708 5705 5702 5701 5700 5698 5696 5695 5693 5692 5692 5691 5689 5685 5678 5674
5778 5775 5771 5767 5763 5760 5755 5751 5746 5742 5740 5738 5736 5734 5731 5729 5727 5724 5722 5721 5719 5717 5714 5711 5708 5705 5703 5701 5700 5698 5697 5695 5693 5691 5689 5688 5687 5687 5686 5684 5682 5679 5674
5771 5768 5765 5762 5758 5755 5751 5745 5741 5738 5735 5733 5731 5729 5726 5724 5721 5719 5717 5716 5714 5711 5708 5705 5702 5700 5697 5696 5694 5693 5693 5690 5688 5687 5685 5683 5682 5680 5679 5678 5676 5675 5672
5766 5763 5760 5757 5752 5748 5744 5740 5736 5733 5730 5728 5726 5723 5721 5718 5715 5713 5712 5711 5708 5706 5703 5700 5697 5695 5693 5691 5689 5687 5687 5685 5683 5682 5680 5679 5677 5675 5674 5671 5670 5668 5667
5758 5755 5752 5748 5745 5742 5739 5735 5732 5729 5726 5723 5720 5717 5715 5712 5709 5708 5707 5705 5703 5701 5698 5696 5692 5691 5689 5687 5686 5684 5682 5680 5679 5677 5675 5673 5671 5668 5667 5665 5664 5662 5662
5747 5745 5742 5740 5738 5735 5733 5730 5727 5724 5722 5718 5715 5711 5708 5706 5704 5703 5701 5700 5698 5695 5693 5691 5689 5687 5686 5683 5682 5679 5677 5676 5675 5674 5671 5669 5667 5663 5661 5660 5657 5656 5654
5738 5735 5733 5731 5730 5727 5725 5724 5721 5718 5716 5712 5708 5706 5704 5702 5700 5697 5696 5694 5691 5690 5687 5685 5684 5683 5681 5678 5676 5674 5673 5671 5670 5668 5666 5665 5662 5659 5656 5655 5652 5650 5647
5729 5727 5725 5723 5721 5718 5717 5716 5714 5712 5708 5704 5701 5700 5698 5696 5694 5691 5689 5687 5685 5683 5681 5679 5679 5677 5676 5673 5671 5668 5667 5666 5664 5662 5661 5659 5656 5654 5651 5649 5647 5645 5642
5719 5718 5716 5714 5713 5711 5710 5708 5707 5705 5701 5698 5696 5694 5692 5690 5688 5687 5684 5681 5678 5676 5675 5674 5673 5671 5669 5667 5665 5663 5661 5661 5659 5657 5655 5654 5652 5649 5647 5645 5642 5640 5638
5709 5708 5707 5706 5706 5706 5703 5701 5699 5696 5694 5692 5690 5688 5686 5684 5682 5680 5678 5675 5673 5670 5669 5668 5667 5666 5664 5661 5659 5657 5656 5656 5654 5652 5650 5648 5645 5644 5641 5640 5638 5635 5634
5701 5700 5699 5699 5698 5697 5696 5693 5691 5689 5687 5686 5684 5683 5681 5678 5675 5673 5671 5669 5667 5665 5664 5663 5662 5660 5658 5655 5653 5650 5650 5650 5649 5648 5646 5644 5641 5638 5636 5634 5631 5629 5628
5693 5691 5691 5690 5688 5688 5688 5685 5683 5682 5680 5680 5679 5678 5676 5673 5670 5668 5666 5664 5662 5660 5659 5659 5658 5656 5654 5650 5647 5644 5645 5644 5643 5642 5640 5638 5635 5632 5629 5627 5625 5622 5622
5685 5685 5682 5680 5680 5680 5680 5677 5676 5675 5675 5675 5674 5673 5671 5668 5666 5664 5661 5659 5657 5655 5654 5653 5652 5651 5648 5644 5641 5639 5638 5637 5636 5635 5634 5633 5629 5626 5623 5621 5619 5618 5615
5676 5676 5674 5673 5673 5673 5672 5669 5668 5669 5670 5669 5667 5666 5664 5662 5661 5657 5655 5653 5650 5648 5647 5646 5645 5644 5642 5639 5636 5633 5630 5629 5628 5628 5629 5627 5623 5621 5618 5616 5615 5612 5609
5668 5667 5666 5664 5664 5665 5664 5661 5661 5662 5662 5660 5658 5657 5656 5655 5654 5651 5648 5646 5644 5642 5641 5639 5638 5637 5635 5632 5629 5626 5624 5622 5620 5622 5621 5618 5616 5613 5612 5611 5608 5605 5603
5658 5658 5657 5656 5656 5657 5658 5657 5656 5656 5654 5651 5650 5649 5648 5647 5646 5644 5643 5640 5638 5636 5634 5632 5631 5629 5628 5625 5622 5619 5617 5615 5614 5613 5613 5611 5609 5607 5606 5605 5603 5601 5600
5649 5649 5648 5647 5648 5649 5648 5649 5649 5647 5645 5643 5642 5641 5641 5641 5639 5637 5635 5634 5632 5630 5627 5626 5623 5621 5619 5617 5613 5611 5610 5608 5606 5604 5605 5605 5605 5603 5602 5601 5600 5598 5596
5641 5641 5640 5640 5640 5641 5640 5640 5640 5638 5637 5635 5634 5634 5634 5633 5632 5630 5628 5626 5625 5622 5620 5618 5615 5614 5612 5609 5607 5605 5603 5601 5598 5596 5599 5599 5600 5599 5598 5597 5596 5594 5593